Regional Weather Roundup
Issued by NWS Northern Indiana

Home | Current Version | Previous Version | Text Only | Print | Product List | Glossary On
Versions: 1 2 3 4 5 6 7 8 9 10 11 12 13 14 15 16 17 18 19 20 21 22 23 24 25 26 27 28 29 30 31 32 33 34 35 36 37 38 39 40 41 42 43 44 45 46 47 48 49 50
000
ASUS43 KIWX 220510
RWRIWX

KIWX WEATHER ROUNDUP
NATIONAL WEATHER SERVICE NORTHERN INDIANA
100 AM EDT WED OCT 22 2014

NOTE: "FAIR" INDICATES FEW OR NO CLOUDS BELOW 12,000 FEET WITH NO
SIGNIFICANT WEATHER AND/OR OBSTRUCTIONS TO VISIBILITY.

* THESE STATIONS ARE NOT UNDER NWS QUALITY CONTROL. THEY ALSO MAY NOT
  REPORT WEATHER SUCH AS PRECIPITATION OR FOG.

INZ001>027-220600-
NORTHERN INDIANA

CITY           SKY/WX    TMP DP  RH WIND       PRES   REMARKS
GARY*          CLEAR     46  37  71 SE3       30.25S
VALPARAISO     CLEAR     38  35  89 CALM      30.25F
MICHIGAN CITY* CLEAR     36  36 100 CALM      30.25F
LAPORTE*       CLEAR     36  35  99 CALM      30.25S
KNOX*          CLEAR     37  34  87 CALM      30.23F
SOUTH BEND     CLEAR     36  32  85 CALM      30.25F
GOSHEN         CLEAR     37  35  92 NE3       30.24S
MONTICELLO*    PTCLDY    44  38  81 CALM      30.23F
LOGANSPORT*    CLEAR     43  34  70 CALM      30.24F
ROCHESTER*     CLEAR     43  37  81 CALM      30.24F
WARSAW*        CLEAR     37  36  93 CALM      30.24S
ANGOLA*          N/A     37  18  44 N3        30.23F
FORT WAYNE     PTCLDY    42  35  76 N7        30.24S
HUNTINGTON*    PTCLDY    42  37  82 N3        30.22F
PERU/GRISSOM   CLEAR     41  38  87 NE3       30.22F
MARION*        CLOUDY    45  36  69 N3        30.23S

$$
INZ028>050-220600-
CENTRAL INDIANA

CITY           SKY/WX    TMP DP  RH WIND       PRES   REMARKS
LAFAYETTE      CLEAR     42  37  82 NE6       30.24S
KOKOMO*        CLEAR     43  34  70 NE6       30.23F
MUNCIE*        CLOUDY    46  38  73 NE6       30.21S
INDIANAPOLIS   PTCLDY    47  37  68 NE12      30.20S

$$
MIZ043>046-050>051-056>058-064>065-071>073-077>080-220600-
SOUTHWEST LOWER MICHIGAN

CITY           SKY/WX    TMP DP  RH WIND       PRES   REMARKS
BATTLE CREEK   CLEAR     35  32  88 CALM      30.26S
BENTON HARBOR  CLEAR     31  31 100 E3        30.25S
COLDWATER*     CLEAR     40  36  86 N6        30.25S
HILLSDALE*     CLEAR     37  36  96 N3        30.22F
HOLLAND        CLEAR     40  35  83 E6        30.28R
GRAND RAPIDS   CLEAR     35  32  88 N6        30.28R WCI  30
KALAMAZOO      CLEAR     36  33  89 N3        30.26S
STURGIS*       CLEAR     37  36  93 CALM      30.24S
THREE RIVERS*  FAIR      36  34  94 CALM      30.26S FOG

$$
OHZ001>008-015>018-024>025-220600-
NORTHWEST OHIO

CITY           SKY/WX    TMP DP  RH WIND       PRES   REMARKS
WAUSEON*       CLOUDY    45  37  76 N7G13     30.22S
DEFIANCE       CLOUDY    45  36  70 N8        30.22F
FINDLAY        CLOUDY    45  38  76 N8        30.18F
TOLEDO EXPRESS CLOUDY    44  36  73 N7        30.21S
TOLEDO METCALF CLOUDY    46  37  71 N8        30.21S
LIMA           CLOUDY    45  37  73 N8        30.19S

$$
AND FOR LAKE MICHIGAN COASTAL AND OPEN LAKE BUOY OBSERVATIONS

STATION/POSITION TEMP    WIND        PRES    VSBY  WAVE
                 AIR SEA DIR/SP/G                  HT/PER
                 (F)     (DEG/KT/KT) (MB)    (MI)  (FT/S)
CALUMET HARBOR    51      30/  8/ 10 1022.9S
MICHIGAN CITY     44     110/  5/  5   N/A
SAINT JOSEPH      40                 1024.7F
SOUTH LAKE BUOY   50 54   50/ 14/ 16 1024.7F         5/ 7

$$
&&



USA.gov is the U.S. government's official web portal to all federal, state and local government web resources and services.